Вернуться в каталог

THORAD AGENA D DEB

АктивенPO
NORAD 4777·DEBRIS·🇺🇸 United States

Запущен Apr 8, 1970 с Vandenberg Space Force Base

Loading…

Ближайшие Пролёты

TLE

Source: Space-Track
1 04777U 70025DX  26230.31942300  .00000328  00000-0  29733-3 0  9994
2 04777  99.9435 348.3639 0005371 306.0040  78.2308 13.91890847815687

Отслеживайте THORAD AGENA D DEB в реальном времени с AllMySat

Download on the App Store